Regional Weather Roundup
Issued by NWS

Home | Current Version | Previous Version | Text Only | Print | Product List | Glossary Off
Versions: 1 2 3 4 5 6 7 8 9 10 11 12 13 14 15 16 17 18 19 20 21 22 23 24 25 26 27 28 29 30 31 32 33 34 35 36 37 38 39 40 41 42 43 44 45 46 47 48 49 50

568
ASUS43 KDTX 060710
RWRMI
MICHIGAN HOURLY REGIONAL WEATHER ROUNDUP
NATIONAL WEATHER SERVICE DETROIT/PONTIAC MI
200 AM EST TUE DEC 06 2016

NOTE: "FAIR" INDICATES FEW OR NO CLOUDS BELOW 12,000 FEET WITH NO
SIGNIFICANT WEATHER AND/OR OBSTRUCTION TO VISIBILITY.

MIZ047>049-052>055-059>063-066>070-074>076-081>083-060800-
SOUTHEAST LOWER MICHIGAN

CITY           SKY/WX    TMP DP  RH WIND       PRES   REMARKS
ADRIAN         CLOUDY    28  28 100 E6        30.00F WCI  22
ALMA           CLEAR     30  28  94 E6        30.01S FOG     WCI  24
ANN ARBOR      CLOUDY    28  27  96 NE3       30.01F FOG
BAD AXE        CLOUDY    28  27  94 S3        30.04F
CARO           PTCLDY    28  27  98 CALM      30.02F FOG
DETROIT CITY   MOCLDY    27  26  96 CALM      30.03F
DETROIT        CLOUDY    30  28  92 E3        30.04S FOG
FLINT          CLEAR     27  24  89 E6        30.02F WCI  20
GROSSE ILE     CLOUDY    33  30  90 E3        30.02S
HILLSDALE      PTCLDY    30  28  93 E12       29.94F FOG     WCI  21
HOWELL         PTCLDY    27  26  94 E5        30.00F FOG     WCI  22

CITY           SKY/WX    TMP DP  RH WIND       PRES   REMARKS
JACKSON        FLURRIES  28  25  88 E6        29.99S WCI  22
LAMBERTVILLE   PTCLDY    29  27  92 E3        30.00F FOG
LANSING        CLEAR     24  21  88 E7        30.00F WCI  16
LAPEER         NOT AVBL
MASON          CLEAR     29  28  96 E5        30.00S WCI  24
MONROE         CLOUDY    35  33  92 E7        30.01F WCI  29
MT. CLEMENS    CLEAR     27  26  95 CALM      30.01F
PONTIAC        CLEAR     27  24  89 E6        30.00F FOG     WCI  20
PORT HOPE        N/A     30  29  96 CALM      30.03S
PORT HURON     CLEAR     23  23 100 CALM      30.05F FOG
TRI CITIES     PTCLDY    29  28  96 E6        30.02F FOG     WCI  23
MIDLAND        FAIR      30  28  93 CALM      30.01F
TROY           CLEAR     29  27  90 CALM      30.04F
SAGINAW HB     PTCLDY    32  28  86 E3        30.02F
$$
MIZ043>046-050>051-056>058-064>065-071>073-077>080-060800-
SOUTHWEST LOWER MICHIGAN

CITY           SKY/WX    TMP DP  RH WIND       PRES   REMARKS
BATTLE CREEK   CLEAR     28  27  96 E6        29.96F FOG     WCI  22
BENTON HARBOR  CLEAR     31  28  89 E8        29.92F FOG     WCI  23
BIG RAPIDS     PTCLDY    32  29  87 E3        29.96F FOG
COLDWATER      PTCLDY    28  27  94 NE6       29.94F FOG     WCI  22
FREMONT        FAIR      31  28  86 SE7       29.95S WCI  24
HOLLAND        CLOUDY    31  29  92 E7        29.95F WCI  24
GRAND RAPIDS   CLEAR     28  25  88 E7        29.98F FOG     WCI  21
IONIA          FAIR      28  27  95 E8        29.98S WCI  20
KALAMAZOO      CLEAR     28  25  88 E3        29.95F FOG
LUDINGTON      CLOUDY    33  31  92 SE8       29.92S WCI  27
MARSHALL       CLEAR     27  26  97 E3        29.97S FOG
MOUNT PLEASANT PTCLDY    30  29  94 CALM      29.99F FOG
MUSKEGON       CLOUDY    32  29  88 SE10      29.96S WCI  24
SOUTH HAVEN    CLEAR     31  30  96 E6        29.94F FOG     WCI  25
$$
MIZ016>042-060800-
NORTHERN LOWER MICHIGAN

CITY           SKY/WX    TMP DP  RH WIND       PRES   REMARKS
ALPENA         CLEAR     27  25  92 CALM      30.00F
BEAVER ISLAND  CLOUDY    40  37  89 CALM      29.95S
BELLAIRE       MOCLDY    31  31  99 CALM      29.97S FOG
CADILLAC       CLOUDY    32  31  95 SE5       29.94S FOG     WCI  27
CHARLEVOIX     CLOUDY    34  32  94 SE3       29.98F
FRANKFORT      CLOUDY    37  34  89 SE5       29.92F WCI  33
GAYLORD        PTCLDY    30  26  85 SE5       29.94F WCI  25
GRAYLING       MOCLDY    29  28  96 SE3       29.97S
HARBOR SPRINGS CLOUDY    34  32  92 E6        29.96F WCI  28
HOUGHTON LAKE  CLOUDY    31  30  96 SE7       29.98S FOG     WCI  24
MANISTEE       CLOUDY    34  31  88 E10       29.92F WCI  26
OSCODA         MOCLDY    26  24  93 MISG      30.01S
PELLSTON       CLOUDY    33  30  88 CALM      29.98S
ROGERS CITY    CLEAR     32  29  89 S5        30.00F WCI  28
TRAVERSE CITY  CLOUDY    34  31  88 CALM      29.95F
$$
MIZ007>008-015-060800-
EASTERN UPPER MICHIGAN

CITY           SKY/WX    TMP DP  RH WIND       PRES   REMARKS
KINROSS        CLOUDY    33  31  92 SE7       29.97S WCI  27
MACKINAC ISLAN CLOUDY    36  32  86 S9G16     29.97S WCI  29
NEWBERRY       CLOUDY    29  29  97 CALM      29.94S
S. S. MARIE    CLOUDY    34  30  85 E5        29.96S WCI  30
MUNISING         N/A     35  33  92 VRB6      29.90F WCI  30
$$
MIZ004>006-011>014-085-060800-
CENTRAL UPPER MICHIGAN

CITY           SKY/WX    TMP DP  RH WIND       PRES   REMARKS
MANISTIQUE     RAIN      37  35  92 CALM      29.93F
ESCANABA       MOCLDY    38  35  89 S5        29.90F WCI  34
MENOMINEE      CLOUDY    38  36  92 S6        29.88F WCI  33
SAWYER-GWINN   CLOUDY    32  31  97 S12       29.85S FOG     WCI  23
$$
MIZ001>003-009>011-084-060800-
WESTERN UPPER MICHIGAN

CITY           SKY/WX    TMP DP  RH WIND       PRES   REMARKS
IRON MOUNTAIN  CLOUDY    33  30  88 SE12      29.83F FOG     WCI  24
HOUGHTON       CLOUDY    36  33  89 E9        29.77F WCI  29
COPPER HARBOR    N/A     38  35  89 S7        29.81F WCI  33
IRONWOOD       CLOUDY    36  29  75 S13G18    29.70F WCI  27
$$

ABBREVIATIONS USED IN REMARKS
   TC - TEMPERATURE IN CELSIUS
  WCI - WIND CHILL INDEX
   HX - HEAT INDEX
  VSB - VISIBILITY





USA.gov is the U.S. government's official web portal to all federal, state and local government web resources and services.